SCP
0 0 0 0 0 0 0 0 0 0 0 0 0 0 0 0 0 0 0 0 0 0 0 0 0 0 0 0 0 0 0 0 0 0 0 0 0 0 0 0 0 0 0 0 0 0 0 0 0 0 0 0 0 0
0 0 0 0 0 0 0 0 0 0 0 0 0 0 0 0 0 0 0 0 0 0 0 0 0 0 0 0 0 0 0 0 0 0 0 0 0 0 0 0 0 0 0 0 0 0 0 0 0 0 0 0 0 0
0 0 0 0 0 0 0 0 0 0 0 0 0 0 0 0 0 0 0 0 0 0 0 0 0 0 0 0 0 0 0 0 0 0 0 0 0 0 0 0 0 0 0 0 0 0 0 0 0 0 0 0 0 0
0 0 0 0 0 0 0 0 0 0 0 0 0 0 0 0 0 0 0 0 0 0 0 0 0 0 0 0 0 0 0 0 0 0 0 0 0 0 0 0 0 0 0 0 0 0 0 0 0 0 0 0 0 0
0 0 0 0 0 0 0 0 0 0 0 0 0 0 0 0 0 0 0 0 0 0 0 0 0 0 0 0 0 0 0 0 0 0 0 0 0 0 0 0 0 0 0 0 0 0 0 0 0 0 0 0 0 0
0 0 0 0 0 0 0 0 0 0 0 0 0 0 0 0 0 0 0 0 0 0 0 0 0 0 0 0 0 0 0 0 0 0 0 0 0 0 0 0 0 0 0 0 0 0 0 0 0 0 0 0 0 0
0 0 0 0 0 0 0 0 0 0 0 0 0 0 0 0 0 0 0 0 0 0 0 0 0 0 0 0 0 0 0 0 0 0 0 0 0 0 0 0 0 0 0 0 0 0 0 0 0 0 0 0 0 0
0 0 0 0 0 0 0 0 0 0 0 0 0 0 0 0 0 0 0 0 0 0 0 0 0 0 0 0 0 0 0 0 0 0 0 0 0 0 0 -0 -0 0 0 0 0 0 0 0 0 0 0 0 0 0
0 0 0 0 0 0 0 0 0 0 0 0 0 0 0 0 0 0 0 0 0 0 0 0 0 0 0 0 0 0 0 0 0 0 0 0 0 0 0 0 0 0 0 0 0 0 0 0 0 0 0 0 0 0
0 0 0 0 0 0 0 0 0 0 0 0 0 0 0 0 0 0 0 0 0 0 0 0 0 0 0 0 0 0 0 0 0 0 0 0 0 0 0 0 0 0 0 0 0 0 0 0 0 0 0 0 0 0
0 0 0 0 0 0 0 0 0 0 0 0 0 0 0 0 0 0 0 0 0 0 0 0 0 0 0 0 0 0 0 0 0 0 0 0 0 0 0 0 0 0 0 0 0 0 0 0 0 0 0 0 0 0
0 0 0 0 0 0 0 0 0 0 0 0 0 0 0 0 0 0 0 0 0 0 0 0 0 0 0 0 0 0 0 0 0 0 0 0 0 0 0 0 0 0 0 0 0 0 0 0 0 0 0 0 0 0
0 0 0 0 0 0 0 0 0 0 0 0 0 0 0 0 0 0 0 0 0 0 0 0 0 0 0 0 0 0 0 0 0 0 0 0 0 0 0 0 0 0 0 0 0 0 0 0 0 0 0 0 0 0
0 0 0 0 0 0 0 0 0 0 0 0 0 0 0 0 0 0 0 0 0 0 0 0 0 0 0 0 0 0 0 0 0 0 0 0 0 0 0 0 0 0 0 0 0 0 0 0 0 0 0 0 0 0
0 0 0 0 0 0 0 0 0 0 0 0 0 0 0 0 0 0 0 0 0 0 0 0 0 0 0 0 0 0 0 0 0 0 0 0 0 0 0 0 0 0 0 0 0 0 0 0 0 0 0 0 0 0
0 0 0 0 0 0 0 0 0 0 0 0 0 0 0 0 0 0 0 0 0 0 0 0 0 0 0 0 0 0 0 0 0 0 0 0 0 0 0 0 0 0 0 0 0 0 0 0 0 0 0 0 0 0
0 0 0 0 0 0 0 0 0 0 0 0 0 0 0 0 0 0 0 0 0 0 0 0 0 0 0 0 0 0 0 0 0 0 0 0 0 0 0 0 0 0 0 0 0 0 0 0 0 0 0 0 0 0
0 0 0 0 0 0 0 0 0 0 0 0 0 0 0 0 0 0 0 0 0 0 0 0 0 0 0 0 0 0 0 0 0 0 0 0 0 0 0 -0 0 0 0 0 0 0 0 0 0 0 0 0 0 -0
0 0 0 0 0 0 0 0 0 0 0 0 0 0 0 0 0 0 0 0 0 0 0 0 0 0 0 0 0 0 0 0 0 0 0 0 0 0 0 0 0 0 0 0 0 0 0 0 0 0 0 0 -0 -0
0 0 0 0 0 0 0 0 0 0 0 0 0 0 -0 0 0 0 0 0 0 0 0 0 0 0 0 0 0 0 0 0 0 0 0 0 0 0 0 0 0 0 0 0 0 0 0 0 0 0 0 0 -0 -0
0 0 0 0 0 0 0 0 0 0 0 0 0 0 -0 0 0 0 0 0 0 0 0 0 0 0 0 0 0 0 0 0 0 0 0 0 0 0 0 0 0 0 0 0 0 0 0 0 0 0 0 0 -0 -0
0 0 0 0 0 0 0 0 0 0 0 0 0 0 0 0 0 0 0 0 0 0 0 0 0 0 0 0 0 0 0 0 0 0 0 0 0 0 0 0 0 0 0 0 0 0 0 0 0 0 0 -0 -0 -0
0 0 0 0 0 0 0 0 0 0 0 0 0 0 0 0 0 0 0 0 0 0 0 0 0 0 0 0 0 0 0 0 0 0 0 0 0 0 0 0 0 0 0 0 0 0 0 0 0 0 -0 -0 -0 -0
0 0 0 0 0 0 0 0 0 0 0 0 0 0 0 0 0 0 0 0 0 0 0 0 0 0 0 0 0 0 0 0 0 0 0 0 0 0 0 0 0 0 0 0 0 0 0 0 0 -0 -0 -0 -0 0
0 0 0 0 0 0 0 0 0 0 0 0 0 0 0 0 0 0 0 0 0 0 0 0 0 0 0 0 0 0 0 0 0 0 0 0 0 0 0 0 0 0 0 0 0 0 0 0 0 -0 -0 -0 -0 0
0 0 0 0 0 0 0 0 0 0 0 0 0 0 0 0 0 0 0 0 0 0 0 0 0 0 0 0 0 0 -0 0 0 0 0 0 0 0 0 0 0 0 0 0 0 0 -0 -0 -0 -0 -0 -0 0 0
0 0 0 0 0 0 0 0 0 0 0 0 0 0 0 0 0 0 0 0 0 0 0 0 0 0 0 -0 -0 -0 0 0 0 0 0 0 0 0 0 0 0 0 0 0 0 0 -0 -0 -0 -0 0 0 0 -0
0 0 0 0 0 0 0 0 0 0 0 0 0 0 0 0 0 0 0 0 0 0 0 0 0 0 0 0 0 0 0 0 0 0 0 0 0 0 0 0 0 0 0 0 0 0 -0 -0 -0 0 0 0 0 0
0 0 0 0 0 0 0 0 0 0 0 0 0 0 0 0 0 0 0 0 0 0 0 0 0 0 0 0 0 0 0 0 0 0 0 0 0 0 0 0 0 0 0 0 0 -0 0 -0 -0 -0 0 0 0 0
0 0 0 0 0 0 0 0 0 0 0 0 0 0 0 0 0 0 0 0 0 0 0 0 0 0 0 0 0 0 0 0 0 0 0 0 -0 0 0 0 0 -0 0 0 -0 -0 0 0 -0 0 0 0 0 0
0 0 0 0 0 0 0 0 0 0 0 0 0 0 0 0 0 0 0 0 0 0 0 0 0 0 0 0 0 0 0 0 0 0 0 0 0 0 0 0 0 -0 -0 -0 -0 -0 0 0 0 0 0 0 0 0
0 0 0 0 0 0 0 0 0 0 0 0 0 0 0 0 0 0 0 0 0 0 0 0 0 0 0 0 0 0 0 0 0 0 0 0 0 0 0 0 0 -0 -0 -0 -0 0 0 0 0 0 0 0 0 0
0 0 0 0 0 0 0 0 0 0 0 0 0 0 0 0 0 0 0 0 0 0 0 0 0 0 0 0 0 0 0 0 0 0 0 0 0 0 0 0 0 0 0 -0 0 0 0 0 0 0 0 0 0 0
Wind_Speed_500mb
45 48 54 50 51 55 49 44 44 47 44 40 35 31 27 23 18 15 13 14 9 8 15 14 12 11 8 7 7 10 6 3 6 6 6 6 5 4 1 5 7 10 8 6 4 3 11 17 4 10 13 33 39 47
44 44 47 53 53 51 53 50 46 48 47 43 39 35 30 27 22 19 16 18 16 16 13 14 21 27 16 9 6 14 3 7 11 8 2 5 3 3 6 5 2 3 12 8 15 11 11 17 27 32 34 36 47 51
47 44 44 46 51 50 46 52 46 48 51 48 43 38 33 31 27 24 19 18 15 16 26 26 22 31 35 28 18 8 8 10 9 7 13 5 4 8 6 9 5 5 10 5 4 7 23 21 27 32 36 39 46 40
50 48 45 44 47 51 45 49 51 45 45 44 45 40 38 36 32 28 26 21 17 10 8 7 10 8 22 33 23 24 17 13 14 13 6 5 5 15 7 5 8 10 16 7 9 23 30 24 21 23 34 38 38 39
50 50 48 45 45 48 52 45 52 48 49 48 49 47 41 42 38 33 33 30 25 17 6 12 12 14 14 22 18 16 15 19 19 9 5 6 8 8 1 2 7 20 13 9 11 25 14 27 26 30 38 38 37 43
47 47 49 48 46 46 50 50 47 50 51 48 44 59 51 49 45 33 20 39 36 29 9 5 7 13 27 23 19 15 15 15 11 8 6 7 8 9 5 6 16 23 27 30 25 14 24 27 32 25 34 34 40 46
45 44 46 49 47 46 46 50 48 45 46 47 43 43 64 62 59 47 14 11 39 30 8 7 8 8 25 33 24 18 15 8 9 8 8 6 9 15 5 7 14 23 27 24 26 27 24 26 28 28 30 34 41 48
44 44 45 47 47 46 44 45 49 43 41 46 44 38 46 65 61 60 36 20 40 24 10 5 7 5 31 15 12 16 13 14 11 6 6 8 11 7 7 32 25 16 19 20 24 25 25 27 24 26 31 38 45 52
42 42 42 44 45 44 42 44 45 38 35 39 42 32 42 65 54 51 39 32 38 18 8 11 8 8 30 12 11 14 13 3 8 8 8 16 4 9 18 25 26 26 20 15 13 15 17 17 22 29 34 43 47 54
37 38 39 42 40 40 40 40 38 44 28 25 27 21 14 28 42 49 40 28 24 17 15 12 13 7 23 16 10 12 7 6 5 8 16 6 8 43 37 30 25 20 19 23 22 18 15 19 25 33 39 47 49 51
39 37 38 36 29 28 33 35 28 22 16 22 20 16 19 50 36 23 14 14 17 8 19 20 39 11 25 10 9 14 8 7 4 8 9 5 6 12 9 4 5 20 18 14 13 8 13 20 28 34 45 46 48 50
38 37 35 33 31 31 30 27 24 32 25 28 19 26 41 13 10 11 10 12 11 12 22 23 25 17 21 16 10 16 8 4 9 17 5 6 8 18 16 17 14 14 15 12 5 6 17 26 28 39 42 45 46 48
36 35 29 32 34 33 29 33 31 36 28 26 11 13 12 12 9 15 19 9 9 17 27 29 13 25 13 12 9 7 7 9 17 3 8 9 11 22 27 24 21 20 17 11 4 13 24 27 32 40 44 43 44 48
39 35 29 32 32 30 41 24 39 37 29 12 13 10 11 9 11 9 7 10 20 23 53 56 23 16 11 8 8 8 7 9 3 2 10 7 28 34 29 26 24 22 15 6 7 13 19 29 38 45 41 41 42 48
35 29 26 30 30 32 46 33 27 49 24 13 10 9 12 16 12 12 29 10 17 43 70 30 13 11 6 8 5 8 6 8 12 9 7 14 35 35 34 27 24 19 10 8 11 15 21 34 41 47 38 38 40 45
37 25 31 26 25 40 40 43 23 21 19 9 9 7 14 7 8 11 25 19 23 58 51 11 9 8 6 9 8 11 15 12 8 10 16 29 34 35 29 24 22 16 15 13 14 20 26 35 42 44 37 34 39 44
27 33 23 27 32 42 33 39 21 15 15 10 10 17 22 10 7 13 20 33 19 56 7 9 9 10 10 8 7 9 10 7 16 22 27 32 33 26 21 21 21 22 18 15 17 22 27 35 39 35 32 33 37 43
31 18 24 26 46 38 34 16 11 10 9 15 9 10 18 9 12 7 14 26 26 33 15 8 14 6 10 12 6 7 13 13 24 30 34 30 26 22 22 21 23 23 20 19 25 25 32 38 32 30 29 33 36 44
19 26 23 42 48 23 13 14 8 12 11 11 15 19 7 9 4 7 15 34 18 25 30 9 8 5 7 10 10 15 22 28 34 32 31 29 26 16 14 16 19 21 23 25 28 33 35 32 28 24 28 31 39 43
23 26 25 47 45 4 6 4 6 2 5 7 11 22 13 10 7 11 18 24 29 18 6 5 7 16 17 16 16 20 25 23 30 33 28 26 22 12 7 3 9 15 23 28 28 26 28 26 20 22 25 32 38 36
27 34 29 40 15 4 4 5 3 1 5 4 9 21 10 16 9 10 11 18 4 4 7 8 12 25 24 26 28 29 28 27 23 17 20 24 23 17 10 8 10 17 18 20 18 19 22 22 18 19 24 32 28 24
36 38 29 43 4 8 4 8 4 7 5 1 12 10 9 11 5 7 10 8 6 8 12 15 19 29 32 33 33 29 23 17 10 13 19 20 16 16 14 13 17 17 18 17 20 23 18 16 13 14 23 26 26 18
50 34 22 7 5 6 3 17 7 11 5 6 4 6 5 7 10 18 6 6 9 13 16 19 20 20 35 36 25 22 16 10 12 16 17 14 17 20 23 20 17 21 21 23 22 19 13 9 7 12 11 22 25 27
28 16 14 14 9 9 10 8 7 7 7 6 8 7 4 7 19 4 2 5 14 20 29 34 29 25 33 31 31 34 26 19 15 24 21 19 19 17 20 20 22 21 22 23 23 20 14 6 6 6 1 8 14 16
9 9 13 7 11 7 7 8 6 4 4 5 5 4 5 11 5 6 4 7 16 18 24 32 30 35 40 40 27 26 28 30 32 34 27 17 18 18 17 21 21 21 24 25 21 19 14 9 5 7 6 4 9 10
6 11 14 15 10 8 9 8 10 8 6 6 9 6 10 5 4 5 4 3 13 22 24 28 37 46 45 40 36 30 24 23 25 22 14 14 15 15 13 15 21 25 21 16 15 18 16 7 4 2 14 11 12 16
3 9 11 10 11 11 5 5 17 5 6 6 3 9 6 5 3 4 5 8 12 17 21 28 36 40 37 37 36 26 18 13 13 19 19 13 10 9 15 21 19 13 7 5 8 17 6 2 3 19 13 25 20 31
4 4 10 17 8 5 6 4 3 3 3 9 2 5 5 5 5 11 10 17 17 18 20 23 25 25 27 27 27 24 19 12 9 13 11 9 8 10 10 5 2 7 8 7 16 11 11 13 22 22 30 37 24 15
5 4 17 9 9 10 10 4 2 2 2 4 6 5 7 6 17 24 24 23 23 16 15 19 22 22 23 24 22 21 18 15 15 15 12 11 13 11 9 5 6 8 8 9 13 18 16 26 37 41 29 18 18 17
11 13 12 11 6 5 9 8 12 12 12 13 13 14 14 17 21 22 19 18 17 16 17 17 17 18 21 20 20 20 17 13 13 15 14 14 9 6 14 17 13 13 14 18 15 27 27 18 25 20 16 13 13 21
8 10 12 8 7 11 13 15 17 17 16 18 20 18 14 11 15 14 14 15 15 17 20 19 16 15 13 16 18 17 17 15 12 12 8 6 7 10 6 15 15 23 27 20 28 31 30 25 17 14 12 12 14 15
9 8 11 6 4 5 3 6 8 9 11 11 10 8 5 3 5 6 13 18 22 23 23 27 27 18 14 18 18 21 19 23 27 13 8 6 9 7 24 27 24 27 27 28 27 25 21 17 15 15 13 8 12 13
13 17 16 9 5 1 2 4 7 5 8 5 6 5 1 2 4 4 5 8 13 18 26 31 36 36 30 22 20 22 12 10 9 5 3 8 21 14 14 20 30 28 26 29 26 26 23 20 20 20 17 14 16 18
Wind_Direction_500mb
265 259 253 257 258 254 254 256 257 253 254 253 252 254 261 267 264 270 263 266 282 274 272 247 233 212 189 182 149 161 84 271 57 88 135 203 162 234 60 227 189 179 148 203 95 260 291 192 154 157 243 303 303 305
264 263 258 252 251 253 252 256 259 255 251 248 246 247 248 254 253 251 254 252 268 270 271 275 251 239 226 205 193 180 214 167 161 96 161 118 164 83 149 260 53 260 185 184 176 218 228 210 247 283 296 310 309 304
262 262 262 257 250 249 253 251 255 252 247 245 240 242 240 242 247 243 244 248 264 282 283 272 255 240 230 229 215 210 218 205 185 150 148 149 172 133 164 238 216 249 184 207 66 265 249 280 287 291 304 309 315 310
259 259 258 259 253 246 247 247 245 249 244 245 243 237 233 238 238 242 240 240 237 264 274 260 224 227 214 209 226 223 230 202 174 168 126 137 164 194 202 224 191 205 158 186 262 283 287 293 305 309 313 315 313 318
260 255 255 255 255 249 244 245 242 242 242 247 241 230 232 235 234 237 240 237 232 222 266 286 278 210 185 184 196 209 214 190 173 158 125 206 170 148 148 48 247 192 186 161 226 274 250 292 315 312 310 316 317 317
264 259 252 251 253 251 247 244 249 239 238 245 245 227 227 229 229 225 241 240 231 221 244 302 239 197 198 185 187 178 179 185 177 174 191 208 189 177 140 221 256 226 221 237 253 281 288 296 302 311 315 317 316 318
259 257 258 249 248 251 247 243 245 246 250 251 254 241 221 226 218 204 211 229 196 184 221 274 288 182 185 178 178 176 178 170 176 186 212 206 184 188 136 216 247 226 229 256 270 271 279 290 303 309 319 322 317 320
256 256 258 256 246 247 248 243 239 242 249 254 251 234 234 223 216 214 211 193 176 176 206 185 261 169 174 165 157 182 180 187 196 208 198 188 152 197 250 240 247 243 236 253 270 269 280 288 299 322 330 331 325 325
258 251 253 265 248 243 244 243 239 239 239 254 240 227 226 210 201 210 194 179 187 202 209 186 174 210 174 154 147 158 177 147 197 206 224 159 167 222 228 242 238 237 235 263 268 267 287 299 320 331 336 341 327 328
249 249 252 261 257 239 238 243 241 230 229 255 232 181 200 185 189 200 176 182 200 219 218 219 191 200 169 164 151 137 171 181 184 237 153 161 248 252 253 259 260 258 253 248 245 277 295 317 328 336 344 337 325 325
244 246 255 259 249 243 237 236 237 225 253 219 206 179 177 161 162 169 158 178 184 221 207 205 191 149 188 142 164 201 171 167 185 236 151 222 270 237 209 177 177 224 255 230 246 271 320 327 335 341 342 334 322 325
241 237 256 242 239 246 230 220 205 205 196 196 191 155 147 180 151 162 182 183 198 210 183 170 192 162 162 164 143 180 161 125 228 149 136 258 250 184 169 159 165 175 186 172 156 5 357 352 339 338 334 325 321 328
239 225 248 242 236 244 215 189 199 212 199 204 161 152 185 185 190 190 186 191 185 188 171 157 140 159 146 172 111 130 138 207 132 137 225 228 193 175 167 169 170 174 169 160 77 11 8 360 342 330 326 324 321 330
234 223 234 243 247 229 191 194 198 217 198 212 173 185 212 184 220 200 168 168 202 173 158 149 141 145 147 135 143 132 193 119 106 286 232 234 190 171 175 177 184 183 185 199 343 346 339 336 336 333 330 323 324 332
218 218 230 239 236 211 193 190 193 178 176 209 194 225 211 221 233 222 208 200 164 164 155 142 108 119 137 120 180 109 124 216 203 221 230 205 172 176 173 182 195 202 220 267 314 321 318 329 328 337 328 323 326 332
208 217 236 236 225 186 187 195 219 181 168 215 226 265 246 229 205 188 202 213 157 165 161 145 125 125 162 139 137 193 157 213 234 211 186 172 174 174 184 201 209 222 245 273 305 311 316 325 325 334 326 321 327 333
191 222 225 213 187 181 191 198 190 162 170 204 236 243 254 287 245 194 193 203 168 169 172 128 117 178 124 115 179 171 194 209 200 182 167 160 160 169 187 213 222 225 242 269 293 309 316 323 327 325 317 321 329 336
203 193 197 186 181 184 187 208 180 158 184 212 207 219 221 252 321 187 191 195 179 186 159 163 128 121 148 154 221 221 207 181 168 163 159 161 163 178 200 208 212 225 247 268 296 303 313 319 316 310 316 323 330 339
183 189 179 174 179 184 155 193 205 184 189 195 194 165 165 311 322 180 161 170 189 176 137 114 100 153 188 194 195 189 189 168 164 168 171 177 185 194 208 229 251 266 271 278 289 299 310 310 306 308 319 324 334 342
190 192 158 179 185 196 115 167 177 142 159 202 179 176 166 150 122 167 131 141 148 146 104 129 170 171 145 136 138 158 164 168 175 170 179 188 192 205 199 245 291 283 279 286 298 308 306 303 303 312 319 328 340 347
192 171 169 168 169 141 118 138 133 315 297 200 162 142 118 146 192 160 136 168 146 120 166 184 159 151 137 130 139 141 141 148 148 164 180 187 197 221 242 261 290 288 293 306 307 313 314 295 293 308 323 338 345 352
171 160 165 182 120 147 148 170 162 185 214 36 167 123 117 117 145 205 169 174 186 194 168 149 161 170 171 165 154 156 157 159 168 207 212 216 228 246 268 275 290 297 312 300 290 301 304 288 284 314 341 351 3 358
152 150 153 155 185 162 230 178 182 174 140 165 130 83 127 154 177 160 203 229 227 205 204 217 210 210 201 190 187 194 210 216 243 233 210 237 247 251 252 268 286 297 299 306 298 287 270 256 288 343 18 36 48 34
168 124 176 168 168 195 173 181 202 166 143 165 180 161 181 138 149 116 270 267 245 247 235 228 216 209 187 190 201 208 216 225 237 222 240 252 262 270 270 269 272 277 291 293 290 266 233 257 300 347 35 62 27 24
144 158 154 155 199 153 177 128 150 148 135 161 150 239 170 147 134 173 226 254 220 220 211 206 211 198 215 209 207 220 247 253 242 236 239 257 253 257 283 278 269 274 281 287 285 242 223 225 299 354 119 72 53 28
185 171 173 173 163 178 164 149 180 182 172 156 212 173 128 117 167 240 223 217 205 206 210 205 203 207 214 216 229 236 227 232 227 227 236 235 244 257 267 266 271 273 282 285 258 216 201 216 305 130 135 111 91 99
166 192 183 172 166 159 174 165 136 202 181 134 222 174 149 117 191 200 142 137 152 171 197 209 209 212 214 217 216 209 190 202 224 245 254 222 216 250 272 279 287 271 251 332 199 184 219 68 28 133 136 128 109 134
273 154 142 158 133 151 134 99 94 69 72 115 194 65 124 152 162 160 147 144 134 124 131 136 154 167 171 174 177 181 196 183 179 153 150 174 213 255 271 280 259 209 213 106 153 180 126 39 139 150 143 112 103 69
2 53 121 83 89 66 45 45 131 69 6 140 116 125 141 134 145 151 139 131 137 119 145 160 163 152 159 159 152 157 157 165 175 180 195 205 206 226 272 241 267 229 202 166 144 151 119 65 127 113 108 105 68 89
17 61 86 51 52 46 28 53 84 85 99 109 109 110 112 134 150 157 155 154 150 158 139 140 152 172 177 166 164 167 173 186 216 233 253 249 258 253 253 247 234 206 191 173 154 159 180 143 121 113 111 90 99 118
85 92 77 58 64 63 81 80 80 81 82 74 100 109 121 154 171 178 186 191 194 193 187 173 160 143 148 167 176 181 166 154 139 129 117 179 187 274 244 169 153 157 156 152 158 160 165 179 161 130 121 116 130 121
46 69 121 107 107 101 29 35 45 50 39 51 49 60 64 91 165 209 219 225 230 225 209 202 201 188 167 167 169 167 153 147 151 124 67 56 149 144 166 150 138 152 158 150 145 148 147 144 150 153 157 152 135 124
92 84 91 75 89 259 84 72 57 67 49 54 50 43 11 282 275 261 278 252 260 247 239 215 203 206 203 191 196 192 187 201 191 138 78 116 132 110 116 142 147 151 156 161 154 144 141 144 144 140 139 143 143 138
Wind_Speed_850mb
45 48 54 50 51 55 49 44 44 47 44 40 35 31 27 23 18 15 13 14 9 8 15 14 12 11 8 7 7 10 6 3 6 6 6 6 5 4 1 5 7 10 8 6 4 3 11 17 4 10 13 33 39 47
44 44 47 53 53 51 53 50 46 48 47 43 39 35 30 27 22 19 16 18 16 16 13 14 21 27 16 9 6 14 3 7 11 8 2 5 3 3 6 5 2 3 12 8 15 11 11 17 27 32 34 36 47 51
47 44 44 46 51 50 46 52 46 48 51 48 43 38 33 31 27 24 19 18 15 16 26 26 22 31 35 28 18 8 8 10 9 7 13 5 4 8 6 9 5 5 10 5 4 7 23 21 27 32 36 39 46 40
50 48 45 44 47 51 45 49 51 45 45 44 45 40 38 36 32 28 26 21 17 10 8 7 10 8 22 33 23 24 17 13 14 13 6 5 5 15 7 5 8 10 16 7 9 23 30 24 21 23 34 38 38 39
50 50 48 45 45 48 52 45 52 48 49 48 49 47 41 42 38 33 33 30 25 17 6 12 12 14 14 22 18 16 15 19 19 9 5 6 8 8 1 2 7 20 13 9 11 25 14 27 26 30 38 38 37 43
47 47 49 48 46 46 50 50 47 50 51 48 44 59 51 49 45 33 20 39 36 29 9 5 7 13 27 23 19 15 15 15 11 8 6 7 8 9 5 6 16 23 27 30 25 14 24 27 32 25 34 34 40 46
45 44 46 49 47 46 46 50 48 45 46 47 43 43 64 62 59 47 14 11 39 30 8 7 8 8 25 33 24 18 15 8 9 8 8 6 9 15 5 7 14 23 27 24 26 27 24 26 28 28 30 34 41 48
44 44 45 47 47 46 44 45 49 43 41 46 44 38 46 65 61 60 36 20 40 24 10 5 7 5 31 15 12 16 13 14 11 6 6 8 11 7 7 32 25 16 19 20 24 25 25 27 24 26 31 38 45 52
42 42 42 44 45 44 42 44 45 38 35 39 42 32 42 65 54 51 39 32 38 18 8 11 8 8 30 12 11 14 13 3 8 8 8 16 4 9 18 25 26 26 20 15 13 15 17 17 22 29 34 43 47 54
37 38 39 42 40 40 40 40 38 44 28 25 27 21 14 28 42 49 40 28 24 17 15 12 13 7 23 16 10 12 7 6 5 8 16 6 8 43 37 30 25 20 19 23 22 18 15 19 25 33 39 47 49 51
39 37 38 36 29 28 33 35 28 22 16 22 20 16 19 50 36 23 14 14 17 8 19 20 39 11 25 10 9 14 8 7 4 8 9 5 6 12 9 4 5 20 18 14 13 8 13 20 28 34 45 46 48 50
38 37 35 33 31 31 30 27 24 32 25 28 19 26 41 13 10 11 10 12 11 12 22 23 25 17 21 16 10 16 8 4 9 17 5 6 8 18 16 17 14 14 15 12 5 6 17 26 28 39 42 45 46 48
36 35 29 32 34 33 29 33 31 36 28 26 11 13 12 12 9 15 19 9 9 17 27 29 13 25 13 12 9 7 7 9 17 3 8 9 11 22 27 24 21 20 17 11 4 13 24 27 32 40 44 43 44 48
39 35 29 32 32 30 41 24 39 37 29 12 13 10 11 9 11 9 7 10 20 23 53 56 23 16 11 8 8 8 7 9 3 2 10 7 28 34 29 26 24 22 15 6 7 13 19 29 38 45 41 41 42 48
35 29 26 30 30 32 46 33 27 49 24 13 10 9 12 16 12 12 29 10 17 43 70 30 13 11 6 8 5 8 6 8 12 9 7 14 35 35 34 27 24 19 10 8 11 15 21 34 41 47 38 38 40 45
37 25 31 26 25 40 40 43 23 21 19 9 9 7 14 7 8 11 25 19 23 58 51 11 9 8 6 9 8 11 15 12 8 10 16 29 34 35 29 24 22 16 15 13 14 20 26 35 42 44 37 34 39 44
27 33 23 27 32 42 33 39 21 15 15 10 10 17 22 10 7 13 20 33 19 56 7 9 9 10 10 8 7 9 10 7 16 22 27 32 33 26 21 21 21 22 18 15 17 22 27 35 39 35 32 33 37 43
31 18 24 26 46 38 34 16 11 10 9 15 9 10 18 9 12 7 14 26 26 33 15 8 14 6 10 12 6 7 13 13 24 30 34 30 26 22 22 21 23 23 20 19 25 25 32 38 32 30 29 33 36 44
19 26 23 42 48 23 13 14 8 12 11 11 15 19 7 9 4 7 15 34 18 25 30 9 8 5 7 10 10 15 22 28 34 32 31 29 26 16 14 16 19 21 23 25 28 33 35 32 28 24 28 31 39 43
23 26 25 47 45 4 6 4 6 2 5 7 11 22 13 10 7 11 18 24 29 18 6 5 7 16 17 16 16 20 25 23 30 33 28 26 22 12 7 3 9 15 23 28 28 26 28 26 20 22 25 32 38 36
27 34 29 40 15 4 4 5 3 1 5 4 9 21 10 16 9 10 11 18 4 4 7 8 12 25 24 26 28 29 28 27 23 17 20 24 23 17 10 8 10 17 18 20 18 19 22 22 18 19 24 32 28 24
36 38 29 43 4 8 4 8 4 7 5 1 12 10 9 11 5 7 10 8 6 8 12 15 19 29 32 33 33 29 23 17 10 13 19 20 16 16 14 13 17 17 18 17 20 23 18 16 13 14 23 26 26 18
50 34 22 7 5 6 3 17 7 11 5 6 4 6 5 7 10 18 6 6 9 13 16 19 20 20 35 36 25 22 16 10 12 16 17 14 17 20 23 20 17 21 21 23 22 19 13 9 7 12 11 22 25 27
28 16 14 14 9 9 10 8 7 7 7 6 8 7 4 7 19 4 2 5 14 20 29 34 29 25 33 31 31 34 26 19 15 24 21 19 19 17 20 20 22 21 22 23 23 20 14 6 6 6 1 8 14 16
9 9 13 7 11 7 7 8 6 4 4 5 5 4 5 11 5 6 4 7 16 18 24 32 30 35 40 40 27 26 28 30 32 34 27 17 18 18 17 21 21 21 24 25 21 19 14 9 5 7 6 4 9 10
6 11 14 15 10 8 9 8 10 8 6 6 9 6 10 5 4 5 4 3 13 22 24 28 37 46 45 40 36 30 24 23 25 22 14 14 15 15 13 15 21 25 21 16 15 18 16 7 4 2 14 11 12 16
3 9 11 10 11 11 5 5 17 5 6 6 3 9 6 5 3 4 5 8 12 17 21 28 36 40 37 37 36 26 18 13 13 19 19 13 10 9 15 21 19 13 7 5 8 17 6 2 3 19 13 25 20 31
4 4 10 17 8 5 6 4 3 3 3 9 2 5 5 5 5 11 10 17 17 18 20 23 25 25 27 27 27 24 19 12 9 13 11 9 8 10 10 5 2 7 8 7 16 11 11 13 22 22 30 37 24 15
5 4 17 9 9 10 10 4 2 2 2 4 6 5 7 6 17 24 24 23 23 16 15 19 22 22 23 24 22 21 18 15 15 15 12 11 13 11 9 5 6 8 8 9 13 18 16 26 37 41 29 18 18 17
11 13 12 11 6 5 9 8 12 12 12 13 13 14 14 17 21 22 19 18 17 16 17 17 17 18 21 20 20 20 17 13 13 15 14 14 9 6 14 17 13 13 14 18 15 27 27 18 25 20 16 13 13 21
8 10 12 8 7 11 13 15 17 17 16 18 20 18 14 11 15 14 14 15 15 17 20 19 16 15 13 16 18 17 17 15 12 12 8 6 7 10 6 15 15 23 27 20 28 31 30 25 17 14 12 12 14 15
9 8 11 6 4 5 3 6 8 9 11 11 10 8 5 3 5 6 13 18 22 23 23 27 27 18 14 18 18 21 19 23 27 13 8 6 9 7 24 27 24 27 27 28 27 25 21 17 15 15 13 8 12 13
13 17 16 9 5 1 2 4 7 5 8 5 6 5 1 2 4 4 5 8 13 18 26 31 36 36 30 22 20 22 12 10 9 5 3 8 21 14 14 20 30 28 26 29 26 26 23 20 20 20 17 14 16 18
Wind_Direction_850mb
265 259 253 257 258 254 254 256 257 253 254 253 252 254 261 267 264 270 263 266 282 274 272 247 233 212 189 182 149 161 84 271 57 88 135 203 162 234 60 227 189 179 148 203 95 260 291 192 154 157 243 303 303 305
264 263 258 252 251 253 252 256 259 255 251 248 246 247 248 254 253 251 254 252 268 270 271 275 251 239 226 205 193 180 214 167 161 96 161 118 164 83 149 260 53 260 185 184 176 218 228 210 247 283 296 310 309 304
262 262 262 257 250 249 253 251 255 252 247 245 240 242 240 242 247 243 244 248 264 282 283 272 255 240 230 229 215 210 218 205 185 150 148 149 172 133 164 238 216 249 184 207 66 265 249 280 287 291 304 309 315 310
259 259 258 259 253 246 247 247 245 249 244 245 243 237 233 238 238 242 240 240 237 264 274 260 224 227 214 209 226 223 230 202 174 168 126 137 164 194 202 224 191 205 158 186 262 283 287 293 305 309 313 315 313 318
260 255 255 255 255 249 244 245 242 242 242 247 241 230 232 235 234 237 240 237 232 222 266 286 278 210 185 184 196 209 214 190 173 158 125 206 170 148 148 48 247 192 186 161 226 274 250 292 315 312 310 316 317 317
264 259 252 251 253 251 247 244 249 239 238 245 245 227 227 229 229 225 241 240 231 221 244 302 239 197 198 185 187 178 179 185 177 174 191 208 189 177 140 221 256 226 221 237 253 281 288 296 302 311 315 317 316 318
259 257 258 249 248 251 247 243 245 246 250 251 254 241 221 226 218 204 211 229 196 184 221 274 288 182 185 178 178 176 178 170 176 186 212 206 184 188 136 216 247 226 229 256 270 271 279 290 303 309 319 322 317 320
256 256 258 256 246 247 248 243 239 242 249 254 251 234 234 223 216 214 211 193 176 176 206 185 261 169 174 165 157 182 180 187 196 208 198 188 152 197 250 240 247 243 236 253 270 269 280 288 299 322 330 331 325 325
258 251 253 265 248 243 244 243 239 239 239 254 240 227 226 210 201 210 194 179 187 202 209 186 174 210 174 154 147 158 177 147 197 206 224 159 167 222 228 242 238 237 235 263 268 267 287 299 320 331 336 341 327 328
249 249 252 261 257 239 238 243 241 230 229 255 232 181 200 185 189 200 176 182 200 219 218 219 191 200 169 164 151 137 171 181 184 237 153 161 248 252 253 259 260 258 253 248 245 277 295 317 328 336 344 337 325 325
244 246 255 259 249 243 237 236 237 225 253 219 206 179 177 161 162 169 158 178 184 221 207 205 191 149 188 142 164 201 171 167 185 236 151 222 270 237 209 177 177 224 255 230 246 271 320 327 335 341 342 334 322 325
241 237 256 242 239 246 230 220 205 205 196 196 191 155 147 180 151 162 182 183 198 210 183 170 192 162 162 164 143 180 161 125 228 149 136 258 250 184 169 159 165 175 186 172 156 5 357 352 339 338 334 325 321 328
239 225 248 242 236 244 215 189 199 212 199 204 161 152 185 185 190 190 186 191 185 188 171 157 140 159 146 172 111 130 138 207 132 137 225 228 193 175 167 169 170 174 169 160 77 11 8 360 342 330 326 324 321 330
234 223 234 243 247 229 191 194 198 217 198 212 173 185 212 184 220 200 168 168 202 173 158 149 141 145 147 135 143 132 193 119 106 286 232 234 190 171 175 177 184 183 185 199 343 346 339 336 336 333 330 323 324 332
218 218 230 239 236 211 193 190 193 178 176 209 194 225 211 221 233 222 208 200 164 164 155 142 108 119 137 120 180 109 124 216 203 221 230 205 172 176 173 182 195 202 220 267 314 321 318 329 328 337 328 323 326 332
208 217 236 236 225 186 187 195 219 181 168 215 226 265 246 229 205 188 202 213 157 165 161 145 125 125 162 139 137 193 157 213 234 211 186 172 174 174 184 201 209 222 245 273 305 311 316 325 325 334 326 321 327 333
191 222 225 213 187 181 191 198 190 162 170 204 236 243 254 287 245 194 193 203 168 169 172 128 117 178 124 115 179 171 194 209 200 182 167 160 160 169 187 213 222 225 242 269 293 309 316 323 327 325 317 321 329 336
203 193 197 186 181 184 187 208 180 158 184 212 207 219 221 252 321 187 191 195 179 186 159 163 128 121 148 154 221 221 207 181 168 163 159 161 163 178 200 208 212 225 247 268 296 303 313 319 316 310 316 323 330 339
183 189 179 174 179 184 155 193 205 184 189 195 194 165 165 311 322 180 161 170 189 176 137 114 100 153 188 194 195 189 189 168 164 168 171 177 185 194 208 229 251 266 271 278 289 299 310 310 306 308 319 324 334 342
190 192 158 179 185 196 115 167 177 142 159 202 179 176 166 150 122 167 131 141 148 146 104 129 170 171 145 136 138 158 164 168 175 170 179 188 192 205 199 245 291 283 279 286 298 308 306 303 303 312 319 328 340 347
192 171 169 168 169 141 118 138 133 315 297 200 162 142 118 146 192 160 136 168 146 120 166 184 159 151 137 130 139 141 141 148 148 164 180 187 197 221 242 261 290 288 293 306 307 313 314 295 293 308 323 338 345 352
171 160 165 182 120 147 148 170 162 185 214 36 167 123 117 117 145 205 169 174 186 194 168 149 161 170 171 165 154 156 157 159 168 207 212 216 228 246 268 275 290 297 312 300 290 301 304 288 284 314 341 351 3 358
152 150 153 155 185 162 230 178 182 174 140 165 130 83 127 154 177 160 203 229 227 205 204 217 210 210 201 190 187 194 210 216 243 233 210 237 247 251 252 268 286 297 299 306 298 287 270 256 288 343 18 36 48 34
168 124 176 168 168 195 173 181 202 166 143 165 180 161 181 138 149 116 270 267 245 247 235 228 216 209 187 190 201 208 216 225 237 222 240 252 262 270 270 269 272 277 291 293 290 266 233 257 300 347 35 62 27 24
144 158 154 155 199 153 177 128 150 148 135 161 150 239 170 147 134 173 226 254 220 220 211 206 211 198 215 209 207 220 247 253 242 236 239 257 253 257 283 278 269 274 281 287 285 242 223 225 299 354 119 72 53 28
185 171 173 173 163 178 164 149 180 182 172 156 212 173 128 117 167 240 223 217 205 206 210 205 203 207 214 216 229 236 227 232 227 227 236 235 244 257 267 266 271 273 282 285 258 216 201 216 305 130 135 111 91 99
166 192 183 172 166 159 174 165 136 202 181 134 222 174 149 117 191 200 142 137 152 171 197 209 209 212 214 217 216 209 190 202 224 245 254 222 216 250 272 279 287 271 251 332 199 184 219 68 28 133 136 128 109 134
273 154 142 158 133 151 134 99 94 69 72 115 194 65 124 152 162 160 147 144 134 124 131 136 154 167 171 174 177 181 196 183 179 153 150 174 213 255 271 280 259 209 213 106 153 180 126 39 139 150 143 112 103 69
2 53 121 83 89 66 45 45 131 69 6 140 116 125 141 134 145 151 139 131 137 119 145 160 163 152 159 159 152 157 157 165 175 180 195 205 206 226 272 241 267 229 202 166 144 151 119 65 127 113 108 105 68 89
17 61 86 51 52 46 28 53 84 85 99 109 109 110 112 134 150 157 155 154 150 158 139 140 152 172 177 166 164 167 173 186 216 233 253 249 258 253 253 247 234 206 191 173 154 159 180 143 121 113 111 90 99 118
85 92 77 58 64 63 81 80 80 81 82 74 100 109 121 154 171 178 186 191 194 193 187 173 160 143 148 167 176 181 166 154 139 129 117 179 187 274 244 169 153 157 156 152 158 160 165 179 161 130 121 116 130 121
46 69 121 107 107 101 29 35 45 50 39 51 49 60 64 91 165 209 219 225 230 225 209 202 201 188 167 167 169 167 153 147 151 124 67 56 149 144 166 150 138 152 158 150 145 148 147 144 150 153 157 152 135 124
92 84 91 75 89 259 84 72 57 67 49 54 50 43 11 282 275 261 278 252 260 247 239 215 203 206 203 191 196 192 187 201 191 138 78 116 132 110 116 142 147 151 156 161 154 144 141 144 144 140 139 143 143 138